Weather History for Storm Lake, IA

Change the Weather History Date:

Friday, November 1, 2013

  Actual Average Record
Temperature  
Mean Temperature 45 °F -  
Max Temperature 55 °F 51 °F 73 °F (2001)
Min Temperature 35 °F 33 °F 14 °F (1996)
Degree Days  
Heating Degree Days 20    
Moisture  
Dew Point 39 °F    
Average Humidity 83    
Maximum Humidity 100    
Minimum Humidity 51    
Precipitation  
Precipitation 0.00 in - - ()
Sea Level Pressure  
Sea Level Pressure 29.72 in    
Wind  
Wind Speed 15 mph (WNW)    
Max Wind Speed 26 mph    
Max Gust Speed 34 mph    
Visibility 10 miles    
Events      
Averages and records for this station are not official NWS values.
T = Trace of Precipitation, MM = Missing Value Source: NWS Daily Summary

Daily Weather History Graph

Daily Weather History Graph

Search for Another Location

Airport:

Trip Planner

Search our weather history database for the weather conditions in past years. The results will help you decide how hot, cold, wet, or windy it might be!

Date:

Astronomy

Nov. 01, 2013 Rise Set
Actual Time 7:55 AM CDT 6:13 PM CDT
Civil Twilight 7:25 AM CDT 6:42 PM CDT
Nautical Twilight 6:52 AM CDT 7:16 PM CDT
Astronomical Twilight 6:19 AM CDT 7:48 PM CDT
Moon 5:46 AM CDT (11/1) 5:08 PM CDT (11/1)
Length of Visible Light 11h 17m
Length of Day
10h 18m
Waning Crescent, 4% of the Moon is Illuminated
Nov 1
Waning Crescent
Nov 3
New
Nov 9
First Quarter
Nov 17
Full
Nov 25
Last Quarter

Hourly Weather History & Observations

Time (CDT) Temp. Windchill Dew Point Humidity Pressure Visibility Wind Dir Wind Speed Gust Speed Precip Events Conditions
12:15 AM 42.8 °F 36.6 °F 39.2 °F 87% 29.50 in 10.0 mi WNW 11.5 mph - N/A   Overcast
1:15 AM 39.2 °F 32.0 °F 37.4 °F 93% 29.51 in 10.0 mi West 11.5 mph - N/A   Mostly Cloudy
4:55 AM 37.4 °F 29.8 °F 37.4 °F 100% 29.59 in 10.0 mi WNW 11.5 mph - N/A   Overcast
5:15 AM 35.6 °F 28.0 °F 35.6 °F 100% 29.59 in 10.0 mi WNW 10.4 mph - N/A   Mostly Cloudy
5:35 AM 37.4 °F 30.3 °F 35.6 °F 93% 29.60 in 10.0 mi WNW 10.4 mph - N/A   Overcast
5:55 AM 37.4 °F 30.3 °F 37.4 °F 100% 29.60 in 9.0 mi West 10.4 mph - N/A   Overcast
6:15 AM 37.4 °F 30.8 °F 37.4 °F 100% 29.61 in 10.0 mi WNW 9.2 mph - N/A   Overcast
6:35 AM 37.4 °F 31.4 °F 37.4 °F 100% 29.61 in 10.0 mi WNW 8.1 mph - N/A   Overcast
6:55 AM 37.4 °F 30.8 °F 37.4 °F 100% 29.62 in 10.0 mi WNW 9.2 mph - N/A   Overcast
7:15 AM 37.4 °F 29.8 °F 37.4 °F 100% 29.62 in 10.0 mi WNW 11.5 mph - N/A   Overcast
7:35 AM 37.4 °F 29.3 °F 37.4 °F 100% 29.63 in 10.0 mi WNW 12.7 mph - N/A   Overcast
7:55 AM 37.4 °F 29.8 °F 37.4 °F 100% 29.63 in 8.0 mi West 11.5 mph - N/A   Overcast
8:15 AM 39.2 °F 31.2 °F 37.4 °F 93% 29.64 in 7.0 mi WNW 13.8 mph - N/A   Scattered Clouds
8:35 AM 39.2 °F 31.6 °F 37.4 °F 93% 29.65 in 7.0 mi WNW 12.7 mph 19.6 mph N/A   Clear
8:55 AM 39.2 °F 31.6 °F 39.2 °F 100% 29.66 in 7.0 mi WNW 12.7 mph - N/A   Clear
9:15 AM 39.2 °F 31.2 °F 39.2 °F 100% 29.66 in 7.0 mi WNW 13.8 mph - N/A   Clear
9:35 AM 41.0 °F 33.1 °F 41.0 °F 100% 29.67 in 8.0 mi WNW 15.0 mph - N/A   Partly Cloudy
9:55 AM 42.8 °F 34.8 °F 39.2 °F 87% 29.67 in 9.0 mi WNW 17.3 mph - N/A   Partly Cloudy
10:15 AM 44.6 °F 37.4 °F 39.2 °F 81% 29.68 in 9.0 mi WNW 16.1 mph - N/A   Partly Cloudy
10:35 AM 44.6 °F 37.2 °F 39.2 °F 81% 29.68 in 10.0 mi WNW 17.3 mph 24.2 mph N/A   Partly Cloudy
10:55 AM 44.6 °F 36.9 °F 39.2 °F 81% 29.68 in 10.0 mi WNW 18.4 mph - N/A   Clear
11:15 AM 46.4 °F 38.1 °F 39.2 °F 76% 29.69 in 10.0 mi WNW 24.2 mph - N/A   Clear
11:35 AM 48.2 °F - 39.2 °F 71% 29.69 in 10.0 mi WNW 21.9 mph - N/A   Clear
11:55 AM 48.2 °F - 39.2 °F 71% 29.70 in 10.0 mi WNW 18.4 mph 25.3 mph N/A   Clear
12:15 PM 50.0 °F - 39.2 °F 66% 29.70 in 10.0 mi WNW 21.9 mph - N/A   Clear
12:35 PM 50.0 °F - 39.2 °F 66% 29.71 in 10.0 mi WNW 23.0 mph 29.9 mph N/A   Clear
12:55 PM 50.0 °F - 39.2 °F 66% 29.71 in 10.0 mi WNW 21.9 mph 28.8 mph N/A   Clear
1:15 PM 51.8 °F - 39.2 °F 62% 29.71 in 10.0 mi NW 23.0 mph - N/A   Clear
1:35 PM 51.8 °F - 39.2 °F 62% 29.71 in 10.0 mi NW 21.9 mph 29.9 mph N/A   Clear
1:55 PM 53.6 °F - 39.2 °F 58% 29.71 in 10.0 mi WNW 19.6 mph 27.6 mph N/A   Clear
2:15 PM 55.4 °F - 39.2 °F 54% 29.71 in 10.0 mi WNW 24.2 mph 31.1 mph N/A   Partly Cloudy
2:35 PM 53.6 °F - 37.4 °F 54% 29.71 in 10.0 mi WNW 21.9 mph 29.9 mph N/A   Partly Cloudy
2:55 PM 53.6 °F - 37.4 °F 54% 29.71 in 10.0 mi WNW 18.4 mph 27.6 mph N/A   Partly Cloudy
3:15 PM 55.4 °F - 37.4 °F 51% 29.72 in 10.0 mi NW 26.5 mph 34.5 mph N/A   Mostly Cloudy
5:15 PM 51.8 °F - 35.6 °F 54% 29.75 in 10.0 mi WNW 20.7 mph - N/A   Partly Cloudy
5:35 PM 46.4 °F 38.1 °F 39.2 °F 76% 29.77 in 7.0 mi WNW 24.2 mph - N/A   Mostly Cloudy
5:55 PM 44.6 °F 37.8 °F 41.0 °F 87% 29.77 in 10.0 mi WNW 15.0 mph 21.9 mph N/A   Light Drizzle
6:15 PM 44.6 °F 38.4 °F 41.0 °F 87% 29.78 in 10.0 mi WNW 12.7 mph - N/A   Scattered Clouds
6:35 PM 42.8 °F 36.2 °F 41.0 °F 93% 29.79 in 10.0 mi WNW 12.7 mph - N/A   Scattered Clouds
6:55 PM 44.6 °F 38.8 °F 41.0 °F 87% 29.80 in 10.0 mi WNW 11.5 mph - N/A   Mostly Cloudy
7:15 PM 41.0 °F 34.7 °F 39.2 °F 93% 29.81 in 10.0 mi WNW 10.4 mph - N/A   Scattered Clouds
7:35 PM 42.8 °F 36.6 °F 41.0 °F 93% 29.82 in 10.0 mi WNW 11.5 mph - N/A   Mostly Cloudy
7:55 PM 42.8 °F 35.4 °F 39.2 °F 87% 29.82 in 10.0 mi WNW 15.0 mph - N/A   Overcast
8:15 PM 44.6 °F 37.8 °F 39.2 °F 81% 29.83 in 10.0 mi WNW 15.0 mph - N/A   Overcast
8:35 PM 44.6 °F 37.4 °F 39.2 °F 81% 29.83 in 10.0 mi NW 16.1 mph 23.0 mph N/A   Overcast
8:55 PM 44.6 °F 37.2 °F 39.2 °F 81% 29.84 in 10.0 mi NW 17.3 mph - N/A   Overcast
9:15 PM 42.8 °F 35.4 °F 39.2 °F 87% 29.85 in 10.0 mi NW 15.0 mph - N/A   Overcast
9:35 PM 42.8 °F 35.1 °F 39.2 °F 87% 29.85 in 10.0 mi NW 16.1 mph - N/A   Mostly Cloudy
9:55 PM 42.8 °F 34.8 °F 39.2 °F 87% 29.86 in 10.0 mi NW 17.3 mph - N/A   Overcast
10:15 PM 42.8 °F 35.4 °F 39.2 °F 87% 29.87 in 10.0 mi NW 15.0 mph 21.9 mph N/A   Overcast
10:35 PM 42.8 °F 35.1 °F 39.2 °F 87% 29.88 in 10.0 mi NW 16.1 mph 23.0 mph N/A   Overcast
10:55 PM 42.8 °F 34.0 °F 39.2 °F 87% 29.89 in 10.0 mi NNW 20.7 mph - N/A   Overcast
11:15 PM 42.8 °F 34.0 °F 39.2 °F 87% 29.89 in 10.0 mi NNW 20.7 mph 26.5 mph N/A   Overcast
11:35 PM 42.8 °F 34.8 °F 39.2 °F 87% 29.90 in 10.0 mi NNW 17.3 mph 23.0 mph N/A   Overcast
11:55 PM 42.8 °F 34.8 °F 39.2 °F 87% 29.90 in 10.0 mi NW 17.3 mph - N/A   Overcast